Regional Weather Roundup
Issued by NWS

Home | Current Version | Previous Version | Text Only | Print | Product List | Glossary Off
Versions: 1 2 3 4 5 6 7 8 9 10 11 12 13 14 15 16 17 18 19 20 21 22 23 24 25 26 27 28 29 30 31 32 33 34 35 36 37 38 39 40 41 42 43 44 45 46 47 48 49 50

000
ASUS43 KMPX 271801
RWRMN
WEATHER ROUNDUP FOR MINNESOTA
NATIONAL WEATHER SERVICE TWIN CITIES/CHANHASSEN MN
100 PM CDT THU AUG 27 2015


NOTE: "FAIR" INDICATES FEW OR NO CLOUDS BELOW 12,000 FEET WITH NO
SIGNIFICANT WEATHER AND/OR OBSTRUCTIONS TO VISIBILITY. N/A MEANS
CURRENT SKY AND/OR WEATHER CONDITIONS ARE NOT AVAILABLE.

MNZ060>063-068>070-271900-
   Twin Cities Metro

CITY           SKY/WX    TMP DP  RH WIND       PRES   REMARKS
TWIN CITIES    PTSUNNY   73  56  54 S13       30.05F
6HR MIN TEMP:  60; 6HR MAX TEMP:  73;

ST PAUL        PTSUNNY   73  57  57 S15       30.06F
CRYSTAL        MOSUNNY   76  57  51 S14       30.03F
BLAINE         PTSUNNY   75  57  53 S14       30.04F
LAKEVILLE      CLOUDY    70  61  73 S7        30.06F
EDEN PRAIRIE   PTSUNNY   71  58  63 SE12      30.04F
6HR MIN TEMP:  62; 6HR MAX TEMP:  74;

SOUTH ST PAUL  MOSUNNY   73  56  55 SE10      30.06F
LAKE ELMO      CLOUDY    73  61  64 S12       30.07F
$$
MNZ001>005-007-008-013>017-022>024-027-028-271900-
   Northwest Minnesota

CITY           SKY/WX    TMP DP  RH WIND       PRES   REMARKS
BEMIDJI        MOSUNNY   71  59  66 S8        30.00F
HALLOCK        SUNNY     75  61  60 SE3       29.94F
ROSEAU         SUNNY     73  57  56 CALM      29.98S
WARROAD        SUNNY     70  63  78 NE6       29.99S
THIEF RVR FALL MOSUNNY  N/A N/A N/A SE7       29.96F
CROOKSTON      MOSUNNY   73  61  64 SE7       29.97S
FOSSTON        PTSUNNY   73  59  60 SE6       29.99S
DETROIT LAKES  MOSUNNY   72  61  68 S8        30.00S
MOORHEAD       MOSUNNY   73  63  68 S7        29.97F
PARK RAPIDS    PTSUNNY   74  59  59 SE9       30.00F
MAHNOMEN       CLOUDY    71  61  71 SE5       29.98F
$$
MNZ006-009>011-018-025>026-271900-
   North Central Minnesota

CITY           SKY/WX    TMP DP  RH WIND       PRES   REMARKS
BAUDETTE       SUNNY     73  55  53 S3        29.99F
FLAG ISLAND    SUNNY     66  57  72 S7        29.98F
INTL FALLS     SUNNY     72  55  55 S6        30.00F
6HR MIN TEMP:  39; 6HR MAX TEMP:  72;

WASKISH        SUNNY     73  59  60 S5        29.99F
BIG FORK       SUNNY     73  59  60 S7        30.02F
LONGVILLE      PTSUNNY   73  61  64 SE6       30.01F
GRAND RAPIDS     N/A     70  55  60 SE7       30.03F
CRANE LAKE     SUNNY     70  55  60 S6        30.05F
ORR            SUNNY     73  52  46 CALM      30.01F
COOK           MOSUNNY   72  55  56 SE6       30.04F
WALKER         FAIR      70  58  67 S7        30.01F
$$
MNZ012-019>021-037-271900-
   Northeast Minnesota

CITY           SKY/WX    TMP DP  RH WIND       PRES   REMARKS
DULUTH         MOSUNNY   69  55  60 S9G18     30.07F
6HR MIN TEMP:  46; 6HR MAX TEMP:  69;

ELY            SUNNY     70  54  56 S6        30.05F
HIBBING        SUNNY     72  54  53 S8G17     30.04F
EVELETH        SUNNY     72  55  56 S13       30.05F
DULUTH HARBOR  CLOUDY    57  54  88 E7        30.07F
TWO HARBORS    SUNNY     73  61  64 SW8       30.05F
SILVER BAY     SUNNY     70  54  56 S7        30.06F
GRAND MARAIS     N/A     58  51  78 CALM      30.08F
G MARAIS ARPRT SUNNY     64  46  52 S7        30.11F
$$
MNZ029>031-032-039>041-046>048-054>057-064-271900-
   West Central Minnesota

CITY           SKY/WX    TMP DP  RH WIND       PRES   REMARKS
FERGUS FALLS   SUNNY     73  63  68 SE6       29.97F
WHEATON        MOSUNNY   72  63  73 SE5       29.98F
MORRIS         PTSUNNY   72  63  73 E6        29.96F
ALEXANDRIA     SUNNY     73  62  68 S10       30.01S
ELBOW LAKE     FAIR      72  63  74 S9        29.98F
WADENA         SUNNY     72  61  68 S7        30.00S
GLENWOOD       MOSUNNY   73  63  68 S8        30.01F
APPLETON       CLOUDY    70  61  73 E6        29.96R
BENSON         CLOUDY    70  61  73 S7        29.98F
ORTONVILLE     CLOUDY    70  63  78 S6        29.98R
MADISON        CLOUDY    70  64  83 S7        30.00R
WILLMAR        FAIR      70  61  73 SE10      30.01F
$$
MNZ033>034-036-042>043-049>051-058-059-271900-
   Central Minnesota

CITY           SKY/WX    TMP DP  RH WIND       PRES   REMARKS
ST CLOUD       MOSUNNY   75  60  59 S17       30.02F
6HR MIN TEMP:  58; 6HR MAX TEMP:  75;

SAUK CENTRE    FAIR      72  62  71 S9        30.01S
PAYNESVILLE    PTSUNNY   68  58  69 SE9       30.02F
AITKIN         PTSUNNY   73  59  60 S10G20    30.02F
PINE RIVER     PTSUNNY   72  61  68 S9        30.04S
BRAINERD       MOSUNNY   74  60  61 S12       30.02F
STAPLES        MOSUNNY   72  59  64 S6        30.00S
LONG PRAIRIE   FAIR      72  61  68 SE8       30.01S
LITTLE FALLS   SUNNY     73  59  60 S9        30.01S
LITCHFIELD     CLOUDY    72  63  73 SE6       30.03F
BUFFALO        PTSUNNY   73  57  57 S8        30.05R
MAPLE LAKE     PTSUNNY   73  62  68 SE7       30.04S
$$
MNZ037-044-045-052-053-271900-
   East Central Minnesota

CITY           SKY/WX    TMP DP  RH WIND       PRES   REMARKS
PRINCETON      MOSUNNY   75  61  60 SE10G17   30.03F
MORA           PTSUNNY   70  55  60 S9        30.05F
CAMBRIDGE      PTSUNNY   73  59  60 SE8       30.03F
RUSH CITY      PTSUNNY   71  59  65 SE9       30.05F
MOOSE LAKE     PTSUNNY   72  55  56 S7        30.04S
HINCKLEY       MOCLDY    72  61  68 S8        30.06F
CLOQUET        PTSUNNY   70  54  56 S8        30.06F
MCGREGOR       PTSUNNY   72  55  56 S13       30.04F
$$
MNZ071>073-080-081-089-090-097-098-271900-
   Southwest Minnesota

CITY           SKY/WX    TMP DP  RH WIND       PRES   REMARKS
MONTEVIDEO     LGT RAIN  66  61  82 S12       30.00R
GRANITE FALLS  LGT RAIN  65  61  86 SE10      30.03R
CANBY          LGT RAIN  68  64  85 S6        30.00S
MARSHALL       CLOUDY    66  59  77 S10       30.02F
REDWOOD FALLS  CLOUDY    69  59  70 S9        30.03R
OLIVIA         CLOUDY    68  59  73 SE8       30.00F
PIPESTONE      CLOUDY    73  64  73 SW9       30.02F
WINDOM         CLOUDY    68  59  73 CALM      30.04F
WORTHINGTON    CLOUDY    70  63  78 S13       30.05R
JACKSON        CLOUDY    68  61  77 S12G17    30.04F
TRACY          LGT RAIN  67  61  82 CALM      30.04S
SLAYTON        CLOUDY    69  63  81 CALM      30.03F
$$
MNZ065>067-074>077-082>085-091>093-271900-
   South Central Minnesota

CITY           SKY/WX    TMP DP  RH WIND       PRES   REMARKS
MANKATO        CLOUDY    73  57  56 S13G20    30.04S
NEW ULM        CLOUDY    70  59  68 SE9       30.02F
ST JAMES       CLOUDY    70  61  73 SE8       30.04F
FAIRMONT       CLOUDY    68  55  64 S5        30.06R
GLENCOE        CLOUDY    74  62  67 CALM      30.02F
FARIBAULT      PTSUNNY   72  59  64 S9        30.05F
OWATONNA       PTSUNNY   73  59  60 SE14      30.05F
WASECA         PTSUNNY   72  59  64 SE7G16    30.07S
ALBERT LEA     PTSUNNY   72  57  60 SE13      30.06F
$$
MNZ078>079-086>088-094>096-271900-
   Southeast Minnesota

CITY           SKY/WX    TMP DP  RH WIND       PRES   REMARKS
ROCHESTER      CLOUDY    71  59  65 S15G23    30.10F
6HR MIN TEMP:  52; 6HR MAX TEMP:  71;

RED WING       PTSUNNY   75  55  50 S8        30.06F
STANTON        CLOUDY    71  58  64 S10       30.05F
DODGE CENTER   CLOUDY    72  57  60 S14G21    30.08F
WINONA         PTSUNNY   73  57  56 S3        30.11F
AUSTIN         CLOUDY    73  57  56 S10G16    30.07F
PRESTON        CLOUDY    70  56  61 S14G20    30.12F
$$
ABBREVIATIONS USED IN REMARKS
   TC - TEMPERATURES IN CELSIUS
  WCI - WIND CHILL INDEX
   HX - HEAT INDEX
  VSB - VISIBILITY
$$



USA.gov is the U.S. government's official web portal to all federal, state and local government web resources and services.